When you browse on this site, cookies collect data to enhance your experience and personalize the content and advertising you see.
Visit our Privacy Policy to learn more. By continuing to use the site, you agree to this use of cookies and data.
  • En España
  • Lista de países
  • Para 7 días
  • Temperatura del agua
  • El tiempo en el mapa
  • Informadores
  • user-avatar
    Iniciar sesión

    Tiempo cada hora Offenbach am Mein

    Hoy, 11 Diciembre, Miércoles

    Tiempo Temperatura Precipitaciones Viento Presión Humedad
    00:00 +1°C° 0 mm 3 mps 754 mmHg 80%
    01:00 +1°C° 0 mm 3 mps 754 mmHg 77%
    02:00 +1°C° 0 mm 3 mps 753 mmHg 76%
    03:00 +1°C° 0 mm 3 mps 753 mmHg 75%
    04:00 +1°C° 0 mm 3 mps 752 mmHg 74%
    05:00 +2°C° 0 mm 2 mps 751 mmHg 73%
    06:00 +2°C° 0 mm 2 mps 751 mmHg 72%
    07:00 +2°C° 0 mm 2 mps 751 mmHg 70%
    08:00 +2°C° 0 mm 2 mps 750 mmHg 70%
    09:00 +2°C° 0 mm 2 mps 750 mmHg 69%
    10:00 +2°C° 0 mm 3 mps 749 mmHg 69%
    11:00 +2°C° 0.4 mm 2 mps 749 mmHg 73%
    12:00 +2°C° 0.4 mm 2 mps 748 mmHg 77%
    13:00 +2°C° 0.4 mm 2 mps 747 mmHg 81%
    14:00 +2°C° 0.4 mm 2 mps 747 mmHg 83%
    15:00 +2°C° 0.4 mm 2 mps 746 mmHg 85%
    16:00 +1°C° 0.4 mm 3 mps 745 mmHg 87%
    17:00 +1°C° 0.8 mm 3 mps 745 mmHg 89%
    18:00 +1°C° 0.8 mm 3 mps 745 mmHg 91%
    19:00 +1°C° 0.8 mm 3 mps 745 mmHg 93%
    20:00 +2°C° 0.6 mm 2 mps 745 mmHg 94%
    21:00 +3°C° 0.6 mm 2 mps 745 mmHg 94%
    22:00 +3°C° 0.6 mm 2 mps 745 mmHg 95%
    23:00 +4°C° 0.2 mm 2 mps 745 mmHg 94%

    Mañana, 12 Diciembre, Jueves

    Tiempo Temperatura Precipitaciones Viento Presión Humedad
    00:00 +4°C° 0.2 mm 2 mps 744 mmHg 92%
    01:00 +4°C° 0.2 mm 2 mps 744 mmHg 91%
    02:00 +4°C° 0 mm 2 mps 744 mmHg 91%
    03:00 +3°C° 0 mm 2 mps 743 mmHg 91%
    04:00 +3°C° 0 mm 2 mps 743 mmHg 92%
    05:00 +3°C° 0 mm 2 mps 743 mmHg 92%
    06:00 +3°C° 0 mm 2 mps 743 mmHg 93%
    07:00 +3°C° 0 mm 2 mps 743 mmHg 93%
    08:00 +4°C° 0.2 mm 2 mps 743 mmHg 94%
    09:00 +3°C° 0.2 mm 3 mps 743 mmHg 94%
    10:00 +3°C° 0.2 mm 3 mps 743 mmHg 94%
    11:00 +3°C° 0.1 mm 3 mps 743 mmHg 89%
    12:00 +3°C° 0.1 mm 4 mps 743 mmHg 84%
    13:00 +3°C° 0.1 mm 4 mps 743 mmHg 80%
    14:00 +3°C° 0 mm 4 mps 742 mmHg 77%
    15:00 +3°C° 0 mm 3 mps 742 mmHg 75%
    16:00 +3°C° 0 mm 3 mps 741 mmHg 72%
    17:00 +3°C° 0 mm 3 mps 741 mmHg 74%
    18:00 +2°C° 0 mm 3 mps 740 mmHg 76%
    19:00 +2°C° 0 mm 3 mps 740 mmHg 78%
    20:00 +1°C° 0 mm 3 mps 738 mmHg 79%
    21:00 +1°C° 0 mm 3 mps 737 mmHg 81%
    22:00 +1°C° 0 mm 3 mps 736 mmHg 83%
    23:00 +1°C° 0 mm 3 mps 735 mmHg 81%

    Pasado mañana, 13 Diciembre, Viernes

    Tiempo Temperatura Precipitaciones Viento Presión Humedad
    00:00 +1°C° 0 mm 3 mps 733 mmHg 79%
    01:00 0°C° 0 mm 4 mps 732 mmHg 76%
    02:00 0°C° 0.4 mm 4 mps 731 mmHg 82%
    03:00 0°C° 0.4 mm 5 mps 729 mmHg 88%
    04:00 -1°C° 0.4 mm 6 mps 727 mmHg 94%
    05:00 -1°C° 0.4 mm 6 mps 726 mmHg 94%
    06:00 +1°C° 0.4 mm 5 mps 725 mmHg 93%
    07:00 +1°C° 0.4 mm 5 mps 724 mmHg 92%
    08:00 +2°C° 1.4 mm 5 mps 724 mmHg 92%
    09:00 +2°C° 1.4 mm 5 mps 724 mmHg 92%
    10:00 +3°C° 1.4 mm 5 mps 724 mmHg 92%
    11:00 +3°C° 0.3 mm 5 mps 724 mmHg 88%
    12:00 +3°C° 0.3 mm 5 mps 725 mmHg 85%
    13:00 +3°C° 0.3 mm 5 mps 726 mmHg 81%
    14:00 +3°C° 0 mm 5 mps 726 mmHg 81%
    15:00 +3°C° 0 mm 5 mps 727 mmHg 82%
    16:00 +3°C° 0 mm 5 mps 727 mmHg 83%
    17:00 +3°C° 0.1 mm 5 mps 728 mmHg 85%
    18:00 +2°C° 0.1 mm 5 mps 729 mmHg 87%
    19:00 +2°C° 0.1 mm 5 mps 730 mmHg 89%
    20:00 +2°C° 0.2 mm 5 mps 731 mmHg 88%
    21:00 +3°C° 0.2 mm 5 mps 732 mmHg 88%
    22:00 +3°C° 0.2 mm 5 mps 733 mmHg 87%
    23:00 +3°C° 0.1 mm 5 mps 733 mmHg 87%

    14 Diciembre, Sábado

    Tiempo Temperatura Precipitaciones Viento Presión Humedad
    00:00 +3°C° 0.1 mm 5 mps 734 mmHg 86%
    01:00 +3°C° 0.1 mm 5 mps 735 mmHg 86%
    02:00 +3°C° 0.1 mm 5 mps 735 mmHg 85%
    03:00 +3°C° 0.1 mm 5 mps 735 mmHg 85%
    04:00 +3°C° 0.1 mm 5 mps 735 mmHg 84%
    05:00 +3°C° 0.5 mm 5 mps 735 mmHg 85%
    06:00 +3°C° 0.5 mm 6 mps 735 mmHg 86%
    07:00 +4°C° 0.5 mm 7 mps 735 mmHg 87%
    08:00 +4°C° 0.2 mm 6 mps 735 mmHg 85%
    09:00 +5°C° 0.2 mm 6 mps 735 mmHg 83%
    10:00 +7°C° 0.2 mm 6 mps 735 mmHg 81%
    11:00 +7°C° 0.1 mm 6 mps 736 mmHg 75%
    12:00 +6°C° 0.1 mm 7 mps 736 mmHg 69%
    13:00 +8°C° 0.1 mm 7 mps 737 mmHg 63%
    14:00 +7°C° 0 mm 6 mps 738 mmHg 64%
    15:00 +6°C° 0 mm 5 mps 738 mmHg 65%
    16:00 +6°C° 0 mm 5 mps 739 mmHg 66%
    17:00 +6°C° 0 mm 4 mps 739 mmHg 70%
    18:00 +6°C° 0 mm 4 mps 739 mmHg 75%
    19:00 +6°C° 0 mm 4 mps 739 mmHg 80%
    20:00 +6°C° 0.2 mm 4 mps 739 mmHg 83%
    21:00 +7°C° 0.2 mm 4 mps 739 mmHg 86%
    22:00 +8°C° 0.2 mm 4 mps 740 mmHg 90%
    23:00 +7°C° 0.1 mm 4 mps 740 mmHg 85%

    15 Diciembre, Domingo

    Tiempo Temperatura Precipitaciones Viento Presión Humedad
    00:00 +7°C° 0.1 mm 4 mps 741 mmHg 80%
    01:00 +6°C° 0.1 mm 4 mps 741 mmHg 76%
    02:00 +7°C° 0.1 mm 3 mps 741 mmHg 80%
    03:00 +7°C° 0.1 mm 3 mps 741 mmHg 83%
    04:00 +6°C° 0.1 mm 2 mps 742 mmHg 87%
    05:00 +5°C° 0.2 mm 3 mps 741 mmHg 89%
    06:00 +7°C° 0.2 mm 3 mps 741 mmHg 91%
    07:00 +6°C° 0.2 mm 4 mps 740 mmHg 93%
    08:00 +7°C° 0.1 mm 4 mps 741 mmHg 88%
    09:00 +7°C° 0.1 mm 5 mps 741 mmHg 83%
    10:00 +8°C° 0.1 mm 5 mps 741 mmHg 78%
    11:00 +8°C° 0.1 mm 6 mps 742 mmHg 69%
    12:00 +8°C° 0.1 mm 7 mps 743 mmHg 61%
    13:00 +7°C° 0.1 mm 8 mps 743 mmHg 52%
    14:00 +6°C° 0 mm 7 mps 745 mmHg 53%
    15:00 +5°C° 0 mm 7 mps 746 mmHg 54%
    16:00 +5°C° 0 mm 6 mps 747 mmHg 54%
    17:00 +5°C° 0 mm 5 mps 748 mmHg 59%
    18:00 +5°C° 0 mm 4 mps 749 mmHg 63%
    19:00 +4°C° 0 mm 3 mps 750 mmHg 68%
    20:00 +4°C° 0 mm 3 mps 750 mmHg 70%
    21:00 +4°C° 0 mm 2 mps 750 mmHg 73%
    22:00 +4°C° 0 mm 2 mps 750 mmHg 75%
    23:00 +4°C° 0 mm 2 mps 750 mmHg 77%

    16 Diciembre, Lunes

    Tiempo Temperatura Precipitaciones Viento Presión Humedad
    00:00 +4°C° 0 mm 2 mps 750 mmHg 79%
    01:00 +4°C° 0 mm 2 mps 750 mmHg 80%
    02:00 +5°C° 0 mm 2 mps 749 mmHg 83%
    03:00 +5°C° 0 mm 2 mps 749 mmHg 85%
    04:00 +5°C° 0 mm 2 mps 749 mmHg 87%
    05:00 +5°C° 0.3 mm 2 mps 748 mmHg 89%
    06:00 +6°C° 0.3 mm 2 mps 748 mmHg 91%
    07:00 +6°C° 0.3 mm 2 mps 748 mmHg 93%
    08:00 +6°C° 0.3 mm 2 mps 748 mmHg 94%
    09:00 +7°C° 0.3 mm 1 mps 748 mmHg 95%
    10:00 +7°C° 0.3 mm 1 mps 748 mmHg 96%
    11:00 +8°C° 0.7 mm 1 mps 748 mmHg 96%
    12:00 +8°C° 0.7 mm 1 mps 747 mmHg 97%
    13:00 +8°C° 0.7 mm 1 mps 747 mmHg 97%
    14:00 +7°C° 0.3 mm 2 mps 746 mmHg 95%
    15:00 +8°C° 0.3 mm 2 mps 746 mmHg 94%
    16:00 +8°C° 0.3 mm 3 mps 746 mmHg 93%
    17:00 +8°C° 0.3 mm 2 mps 746 mmHg 92%
    18:00 +8°C° 0.3 mm 2 mps 745 mmHg 92%
    19:00 +8°C° 0.3 mm 2 mps 745 mmHg 91%
    20:00 +8°C° 0.1 mm 2 mps 745 mmHg 90%
    21:00 +8°C° 0.1 mm 2 mps 745 mmHg 88%
    22:00 +8°C° 0.1 mm 2 mps 744 mmHg 86%
    23:00 +8°C° 0 mm 2 mps 744 mmHg 84%
    Mostrar más